Main page
METAR-TAF:

METAR-TAF

Airports :

Paros, Greece

Old Paros National Airport

latitude: 37-00-40N, longitude: 025-07-32E, elevation: 36 m

Current weather observation

The report was made 2 hours and 24 minutes ago, at 08:20 UTC
Wind 7 kt from the Southwest
Temperature 15°C
Humidity 55%
Pressure 1017 hPa
Visibility 10 km or more
Few clouds at a height of 2500 ft

METAR: LGPA 180820Z 22007KT 9999 FEW025 15/06 Q1017

Time: 12:44 (10:44 UTC)


TAF: missing

Weather observations and forecasts of more than 4000 airports (METAR and TAF reports).

The available stations are represented by yellow and red dots on the map.

Hover mouse over dot to see the name of the station.

Then click to see weather observations and forecasts.

To change the map : click on the green buttons with a black cross to zoom in, on the green button with a dash to zoom out, or on the green arrows for adjacent maps.


METAR-TAF: